Regional Weather Roundup
Issued by NWS

Home | Current Version | Previous Version | Graphics & Text | Print | Product List | Glossary On
Versions: 1 2 3 4 5 6 7 8 9 10 11 12 13 14 15 16 17 18 19 20 21 22 23 24 25 26 27 28 29 30 31 32 33 34 35 36 37 38 39 40 41 42 43 44 45 46 47 48 49 50
000
ASUS43 KLSX 242257
RWRMO

WEATHER SUMMARY FOR MISSOURI
NATIONAL WEATHER SERVICE SPRINGFIELD MO
600 PM CDT SUN JUL 24 2016

NOTE: "FAIR" INDICATES FEW OR NO CLOUDS BELOW 12,000 FEET WITH NO
       SIGNIFICANT WEATHER AND/OR OBSTRUCTIONS TO VISIBILITY.
       CURRENT SKY AND/OR WEATHER CONDITIONS ARE NOT AVAILABLE FOR
       CHILLICOTHE AND FARMINGTON.

MOZ001>031-035>038-043-044-053-054-250000-
...NORTHERN AND WESTERN MISSOURI...

CITY           SKY/WX    TMP DP  RH WIND       PRES   REMARKS
KANSAS CTY INT CLOUDY    87  78  74 N10       29.96R HX 100
LEE`S SUMMIT   MOSUNNY   92  77  61 N7        29.94S HX 105
ST JOSEPH      CLOUDY    83  75  77 N10       29.98R HX  90

$$
MOZ066>068-077>081-088>096-101>105-250000-
...SOUTHWEST MISSOURI...

CITY           SKY/WX    TMP DP  RH WIND       PRES   REMARKS
SPRINGFIELD    SUNNY     97  68  38 VRB5      29.95S HX 102
JOPLIN         SUNNY     96  73  47 SW6       29.93F HX 105
BRANSON        PTSUNNY   93  72  49 CALM      29.97S HX 100

$$
MOZ032>034-039>042-045>050-055>058-069>072-250000-
...CENTRAL MISSOURI...

CITY           SKY/WX    TMP DP  RH WIND       PRES   REMARKS
COLUMBIA       NOT AVBL
JEFFERSON CITY SUNNY     96  76  52 N7        29.89R HX 109
ROLLA          MOSUNNY   94  74  52 SW6       29.93F HX 104
SEDALIA        SUNNY     95  78  58 SW5       29.94S HX 111

$$
MOZ051-052-059>065-250000-
...EAST CENTRAL MISSOURI...

CITY           SKY/WX    TMP DP  RH WIND       PRES   REMARKS
ST LOUIS INTL  MOSUNNY  100  73  41 W6        29.90S HX 110

$$
MOZ072>076-082>087-097>100-106>115-250000-
...SOUTH CENTRAL AND SOUTHEAST MISSOURI...

CITY           SKY/WX    TMP DP  RH WIND       PRES   REMARKS
CAPE GIRARDEAU SUNNY     91  75  59 SE5       29.92S HX 101
POPLAR BLUFF   CLOUDY    89  77  67 SW5       29.93R HX 101
WEST PLAINS    MOSUNNY   89  75  63 SE5       29.99R HX  99

$$



USA.gov is the U.S. government's official web portal to all federal, state and local government web resources and services.